Wind_Speed
20 20 20 20 20 20 21 21 20 20 19 19 18 18 17 17 17 16 15 15 15 15 15 14 14 14 14 12 10 8 8 8 6 8 8 6 9 13 14 12 15 15 13 12 13 13 16 17 18 17 16 14 14 14 14 13 12 9 4 1 1 5 3 1 3 4 2 2 4 8 6 5 8 7 11 14 13 16 13 12 12 11 19 24 29 35 35 35
20 20 20 20 20 20 20 20 20 20 19 19 18 18 18 18 17 16 16 15 15 15 14 14 14 14 12 11 11 10 9 7 6 9 7 6 10 13 14 12 13 15 16 17 17 17 19 19 19 17 16 14 13 14 13 12 12 9 5 3 4 4 1 2 4 8 6 5 5 6 8 7 9 13 16 16 12 14 13 11 13 17 24 29 33 34 35 35
21 21 20 20 20 20 20 20 19 19 19 19 18 18 18 18 18 17 16 16 15 14 14 14 14 14 12 10 11 13 10 6 8 9 7 8 10 12 13 12 13 16 19 19 17 17 18 17 17 17 16 13 13 14 13 11 11 10 7 5 4 4 2 2 5 9 13 6 7 6 3 5 8 12 13 14 16 15 11 11 15 22 29 33 34 34 35 34
22 21 21 21 20 20 20 20 19 19 18 18 18 18 18 18 18 18 16 16 15 14 14 13 14 14 12 11 11 14 11 7 5 4 6 8 8 11 13 12 13 16 19 18 15 16 16 15 15 16 15 12 13 14 12 10 8 8 9 5 3 7 4 3 6 9 16 11 7 6 1 4 4 7 6 3 10 11 9 14 18 26 33 34 35 34 35 33
22 22 21 21 21 21 20 19 19 18 18 17 18 18 18 18 18 18 17 16 15 14 13 13 13 12 12 10 11 12 8 3 2 3 6 8 7 8 9 10 12 15 17 18 15 16 17 16 15 16 14 11 12 12 11 12 10 7 8 7 7 10 5 8 10 12 17 13 8 9 5 5 2 8 8 1 2 7 8 16 20 27 34 35 37 35 34 34
23 23 22 22 22 21 21 20 19 18 18 17 17 17 18 18 18 17 17 15 14 14 13 12 12 11 11 10 12 9 4 2 3 4 9 7 5 5 5 7 11 15 18 19 16 16 18 17 15 15 13 10 11 10 10 13 13 7 9 9 7 8 5 10 13 15 16 13 8 7 7 7 6 8 10 5 5 9 9 16 22 27 32 33 35 35 34 34
23 23 23 22 22 22 22 21 20 19 18 17 17 17 18 18 17 17 16 15 14 14 13 12 10 9 11 11 11 7 8 7 3 6 10 7 7 6 4 6 11 16 21 21 18 17 18 18 17 15 12 9 11 12 12 12 13 10 10 9 4 4 7 9 12 13 13 20 14 10 9 7 8 8 9 9 10 13 10 15 22 26 30 30 31 33 33 33
24 23 23 22 22 22 21 21 20 19 17 17 17 17 17 17 17 17 16 15 14 13 12 11 10 9 10 9 8 9 11 5 3 8 13 12 9 6 6 8 13 19 24 22 18 17 18 18 18 15 11 10 11 11 13 11 12 11 12 12 6 12 15 13 12 12 8 20 21 14 7 2 5 7 8 10 10 13 13 15 23 26 28 29 30 30 31 32
24 23 23 23 22 22 21 21 20 18 17 16 17 16 16 16 17 16 15 15 14 12 10 10 9 8 9 6 6 9 4 2 3 7 10 13 10 5 7 9 16 22 24 21 17 17 17 17 18 15 12 11 12 11 13 10 9 12 13 14 11 11 14 17 15 13 10 11 18 17 9 6 8 6 6 9 10 12 15 16 22 25 27 28 28 30 30 31
24 23 23 23 23 22 21 20 19 17 16 16 16 16 15 16 16 16 15 14 13 10 9 9 8 7 7 4 6 7 1 1 4 5 6 9 7 3 4 8 17 22 21 18 17 17 17 16 15 15 14 13 13 11 12 11 9 14 12 11 13 13 12 12 13 13 12 10 9 16 15 14 13 9 5 9 13 14 16 17 21 24 26 27 26 29 29 29
24 23 23 23 23 22 21 20 17 16 16 16 16 16 16 15 14 13 13 13 11 9 8 7 7 8 4 4 10 6 3 5 6 5 5 3 3 2 6 8 14 19 18 17 17 17 17 16 13 13 12 10 12 12 13 14 15 16 13 10 12 12 14 14 12 11 12 9 8 17 16 10 11 10 8 12 16 17 18 18 21 23 24 25 25 27 28 28
23 23 23 23 23 22 20 18 16 16 16 16 17 17 16 14 12 12 11 11 10 8 7 7 8 6 3 7 13 6 6 8 6 5 4 3 3 4 6 8 12 16 16 15 15 16 16 16 15 14 12 9 10 9 8 12 15 16 13 12 12 11 13 15 15 13 11 10 13 18 12 7 7 9 11 15 16 16 18 18 19 22 23 23 24 26 26 27
23 23 23 24 23 22 20 17 16 16 15 16 17 16 14 12 11 10 9 9 8 6 7 8 6 2 3 8 7 5 9 6 5 4 3 4 5 6 7 8 11 15 15 15 13 13 15 16 16 17 16 13 11 8 7 9 11 13 12 10 10 10 11 14 16 15 13 11 14 13 5 6 8 10 12 15 16 15 16 19 20 22 22 22 24 25 25 27
23 23 23 23 23 22 20 17 16 15 15 17 16 13 12 10 9 9 8 8 4 4 6 6 4 0 5 8 3 5 9 2 3 2 3 4 5 7 8 9 11 14 14 15 12 11 13 15 16 17 17 16 14 14 12 9 8 9 10 9 8 8 9 12 15 16 14 13 17 13 6 6 9 11 13 16 18 15 15 19 21 21 22 22 24 25 25 27
22 22 22 22 22 22 20 18 17 15 16 17 13 11 11 8 8 8 7 5 3 3 5 4 5 4 8 9 5 4 10 3 2 2 3 5 6 8 8 9 11 12 14 14 12 11 11 14 16 15 15 15 15 14 10 7 7 8 8 8 9 8 9 12 13 17 15 12 18 14 5 5 10 13 15 18 20 17 14 13 17 20 22 22 23 24 24 25
22 21 21 22 22 22 21 19 18 16 16 15 11 10 10 5 6 9 7 3 1 1 3 2 6 7 8 3 3 4 8 5 3 3 6 6 7 8 7 9 10 11 13 13 12 11 10 13 16 16 15 12 10 10 8 7 7 8 9 8 9 10 9 10 12 16 17 12 14 13 6 4 9 15 18 19 22 21 14 9 14 17 18 22 23 23 24 25
21 20 20 21 22 22 22 20 19 17 16 14 9 9 8 5 6 8 5 1 1 2 3 1 5 9 9 4 3 5 6 7 7 7 8 7 8 8 5 9 10 11 12 12 11 11 11 12 12 12 12 10 8 8 8 7 7 7 9 9 10 12 10 9 11 13 18 12 10 10 7 4 6 15 21 20 20 21 16 12 17 16 13 20 22 22 24 26
21 21 20 21 21 23 22 21 19 18 17 13 9 10 8 6 8 7 3 2 4 5 4 3 4 7 8 5 5 4 6 7 6 5 4 5 7 8 7 9 9 11 13 11 12 13 12 12 11 8 8 9 9 9 9 10 10 9 9 9 9 12 12 11 11 9 17 13 10 10 8 6 7 13 21 21 21 20 17 16 18 16 14 18 21 22 25 26
21 21 21 21 21 23 22 22 19 16 16 11 9 10 7 8 9 4 2 3 6 5 4 4 6 6 3 2 4 5 7 6 6 4 3 4 6 7 9 9 9 12 13 9 11 14 12 9 9 8 8 10 11 13 13 13 14 14 11 10 10 11 12 12 13 10 16 13 12 12 10 8 6 9 18 19 20 20 17 17 17 16 16 16 17 19 24 27
21 21 21 21 21 23 22 22 19 15 14 11 13 14 9 10 7 1 6 7 12 9 8 4 5 9 7 3 5 9 8 6 6 4 2 3 6 8 10 11 10 12 12 8 9 14 12 8 9 10 11 14 16 17 17 16 15 17 15 12 12 12 11 12 15 13 15 12 11 14 11 8 4 7 14 18 21 20 18 19 18 18 21 21 15 15 19 26
21 21 22 22 22 23 21 20 18 13 10 9 14 15 11 12 7 5 12 11 11 9 9 6 6 9 7 5 7 9 6 5 3 1 1 3 6 8 9 11 10 9 10 12 10 12 13 10 10 14 15 16 16 16 17 17 16 17 15 12 12 11 11 13 15 15 13 11 9 15 15 13 11 12 13 16 18 18 20 21 17 20 24 24 20 17 19 21
22 22 23 23 22 22 20 18 14 9 8 7 9 10 9 11 8 8 11 12 12 9 8 7 7 7 4 5 5 4 6 7 4 3 1 3 8 8 8 10 10 8 10 13 10 9 11 11 13 15 15 16 16 16 17 18 16 14 12 11 11 8 10 12 15 17 11 9 7 13 13 12 13 13 12 16 17 17 22 23 19 25 27 23 23 20 19 17
23 23 23 24 23 22 19 14 8 6 9 9 7 7 9 10 9 9 9 10 13 11 11 9 9 6 3 3 2 3 8 9 2 6 3 4 8 8 7 8 9 9 10 12 11 10 8 10 15 16 15 16 17 17 17 15 13 12 11 10 9 10 11 8 12 18 12 9 10 13 12 9 9 10 12 17 19 18 22 20 23 29 29 24 23 22 18 18
23 24 24 25 24 21 16 9 6 5 8 8 5 6 9 10 9 10 10 10 10 9 9 8 7 4 3 3 3 6 8 7 4 3 3 5 7 6 7 9 9 9 10 13 14 14 12 10 13 16 17 17 17 17 17 13 10 12 14 12 10 12 14 10 8 13 13 12 13 13 9 7 10 11 12 15 15 16 20 20 23 26 27 25 23 22 22 22
24 24 25 25 25 20 12 6 5 7 9 7 4 6 10 11 9 8 8 8 7 6 8 5 5 5 4 4 5 6 8 7 7 2 1 6 8 6 7 9 9 8 10 14 15 13 14 14 13 15 16 18 17 15 16 13 9 10 14 15 15 15 15 15 14 11 10 11 14 13 9 6 13 17 15 13 12 14 17 19 22 23 26 29 27 25 24 24
24 25 25 24 25 20 10 5 5 8 10 6 4 8 11 10 8 7 6 6 4 6 8 6 5 4 3 3 5 7 8 5 4 2 2 5 7 7 7 6 7 9 11 11 10 8 11 15 15 14 15 18 18 15 15 15 10 9 10 14 17 18 16 16 17 12 8 8 11 14 10 6 10 17 18 15 14 16 17 18 21 22 25 29 29 26 24 24
24 25 25 23 23 20 12 7 6 8 11 7 7 10 10 10 9 5 4 6 3 6 7 6 4 2 1 1 4 8 5 1 3 5 3 2 4 5 6 7 7 8 10 9 7 6 9 15 16 15 15 14 14 13 14 15 11 8 9 11 15 18 19 18 16 12 8 9 10 12 13 8 7 11 18 20 17 17 17 16 19 21 23 29 32 28 24 24
24 25 24 22 19 15 12 9 5 6 11 10 10 11 9 9 8 3 5 4 2 5 5 5 2 1 2 3 7 9 6 5 5 4 4 3 4 5 7 8 9 11 11 9 8 8 10 13 15 16 15 11 11 12 14 16 13 10 12 13 11 11 15 16 14 11 9 10 10 11 14 9 6 9 13 20 20 19 20 19 20 22 25 31 37 33 27 27
23 24 23 21 16 9 10 10 5 7 11 11 10 10 9 9 6 4 6 3 3 5 3 4 3 3 5 7 7 7 6 6 5 2 2 8 7 7 8 8 10 13 13 11 10 10 10 11 13 15 14 10 11 13 14 15 13 10 13 15 10 7 8 11 11 10 10 10 10 12 14 9 6 8 11 15 17 18 20 20 20 26 30 34 40 36 28 29
22 23 22 20 14 7 8 11 7 7 10 11 11 11 10 8 5 5 5 2 4 4 2 3 2 3 5 8 7 5 5 5 4 4 6 8 8 9 10 10 9 10 10 11 11 13 16 16 12 12 13 13 12 13 15 17 15 11 12 13 11 8 6 6 7 8 9 10 11 15 16 11 8 8 9 10 13 15 17 16 18 26 33 39 43 39 31 30
22 21 20 18 12 5 7 8 6 7 11 12 12 11 10 5 4 6 3 2 3 3 3 2 2 1 4 7 3 3 3 3 2 6 7 7 7 9 9 9 7 7 8 9 10 12 16 17 12 9 14 17 13 12 14 14 12 10 9 10 9 7 5 5 6 7 9 9 10 14 17 14 11 8 7 10 14 17 16 17 20 23 30 39 41 37 34 33
21 20 17 14 9 4 6 7 7 10 11 11 11 10 8 4 6 6 1 3 2 1 1 4 4 2 3 6 3 2 3 2 1 5 6 5 5 5 5 3 1 4 6 6 8 10 12 13 13 11 14 17 13 9 10 10 9 11 10 9 9 7 6 6 7 7 9 9 9 13 16 14 11 9 12 14 11 13 13 17 24 26 30 37 37 35 34 33
20 18 14 9 5 3 5 7 9 11 9 9 10 9 7 5 5 4 1 2 2 3 3 3 3 3 3 4 1 3 4 3 1 4 5 5 7 4 0 5 7 6 6 6 7 6 8 12 15 14 11 13 14 9 8 9 11 13 11 9 9 8 7 8 8 7 8 9 11 15 14 11 10 10 16 20 12 11 16 20 27 30 37 42 38 37 36 34
18 15 10 6 6 8 10 9 8 9 8 8 9 7 6 5 2 1 3 7 6 3 1 2 3 4 5 4 3 3 4 2 2 5 5 4 7 5 2 8 9 7 7 7 7 6 7 8 13 15 11 12 14 12 10 10 11 12 11 10 9 8 8 7 6 7 8 8 12 16 13 10 9 8 13 18 16 14 17 20 26 27 36 44 40 37 35 34
15 11 8 7 9 11 12 10 9 8 8 8 8 6 5 4 3 4 4 6 5 4 3 1 5 7 6 4 2 2 3 2 2 3 6 6 6 2 4 8 9 8 7 5 5 7 10 10 5 9 14 16 15 13 13 14 10 9 10 9 10 9 8 7 8 9 9 8 9 11 9 8 7 7 11 15 16 17 15 15 20 25 36 43 39 35 34 32
11 7 6 7 7 8 7 7 8 6 7 8 6 5 2 3 7 6 5 6 6 7 7 5 5 6 5 5 5 5 3 3 3 3 5 6 6 1 8 8 7 9 8 6 6 6 8 11 9 10 12 15 16 16 15 15 10 6 10 11 10 11 9 8 10 11 10 9 7 8 9 9 8 9 11 14 16 16 15 15 15 22 36 41 39 37 36 33
6 4 5 5 6 7 5 5 5 5 7 8 5 5 2 5 8 8 6 7 5 4 8 6 1 3 4 1 3 7 5 4 2 2 5 4 3 2 6 8 7 8 9 8 5 6 8 11 13 15 13 11 13 16 17 18 16 8 8 10 10 12 11 8 7 8 10 9 6 8 11 10 9 7 10 15 17 17 16 16 17 17 28 36 37 38 37 34
5 5 2 2 6 7 3 3 4 5 7 7 5 6 4 5 9 9 8 8 5 4 7 5 3 3 5 4 3 7 4 3 3 3 6 1 2 7 7 4 7 9 9 10 6 6 9 10 12 13 12 11 12 14 15 19 21 17 11 8 8 10 10 8 7 7 9 8 7 10 12 10 9 8 10 15 18 17 18 18 16 11 18 28 34 34 33 32
6 6 2 2 6 4 0 2 4 6 7 5 4 2 1 5 9 10 10 7 5 5 5 5 4 0 3 5 5 5 5 4 5 5 5 2 2 6 8 5 7 8 10 11 7 7 8 7 9 12 13 12 10 10 11 13 16 17 16 12 9 8 8 9 8 7 8 8 7 9 10 8 7 7 11 16 18 16 17 17 14 12 14 24 32 32 31 31
7 7 1 5 5 1 1 2 5 8 7 4 3 3 4 6 8 10 10 8 5 5 5 7 5 2 4 6 5 4 4 3 4 5 4 5 2 3 9 9 6 8 11 10 8 7 7 6 8 13 14 11 8 7 9 10 11 13 13 12 10 8 7 8 8 9 8 7 7 7 8 7 5 7 9 13 15 15 14 12 11 15 19 25 31 32 32 33
8 6 4 6 2 2 5 7 7 6 4 2 2 5 7 7 7 7 7 6 6 3 3 6 6 4 6 7 5 6 6 5 5 4 4 5 2 2 8 12 9 8 9 8 7 5 4 6 8 11 11 9 9 8 9 9 9 9 10 11 12 10 8 8 8 11 10 8 7 6 7 6 5 7 8 9 11 13 15 13 10 14 22 25 27 28 31 33
8 3 6 4 2 4 10 8 3 2 3 4 5 8 6 5 6 6 5 5 4 2 2 5 3 3 4 4 5 6 5 6 6 5 6 6 4 7 8 9 9 8 8 6 5 7 7 6 7 9 10 12 16 17 17 17 18 16 11 9 12 12 11 9 7 9 10 10 10 8 8 7 3 4 8 12 11 13 17 17 14 15 20 22 24 28 32 34
6 5 6 2 2 7 10 4 1 2 4 5 6 7 5 3 4 6 6 6 3 1 3 4 4 4 3 3 5 6 6 5 5 6 7 7 5 11 10 10 9 7 7 5 4 8 8 5 7 8 10 12 17 21 21 19 15 14 11 10 11 11 11 11 9 9 9 11 11 7 8 8 4 7 2 6 7 11 14 17 17 18 21 22 22 26 30 37
11 6 5 3 5 8 7 3 3 2 3 3 3 4 3 5 6 6 6 8 6 5 5 4 5 7 5 5 4 5 6 5 4 6 6 7 4 10 13 11 10 7 5 6 6 8 6 5 6 7 8 8 10 13 14 14 10 8 9 11 11 14 18 16 11 8 9 11 12 10 9 8 2 5 4 2 5 9 10 12 16 18 21 24 24 26 26 32
11 4 2 3 3 4 6 6 5 3 4 4 3 2 3 5 7 6 5 5 5 6 7 4 3 2 3 6 6 4 7 7 6 7 6 7 9 12 13 11 10 8 6 8 11 9 5 5 6 7 8 8 8 6 6 7 6 7 11 13 12 16 19 14 9 6 8 10 11 8 7 8 6 2 2 2 7 6 3 5 12 13 14 19 22 24 26 30
8 2 2 3 5 8 9 7 7 7 5 3 2 5 4 3 8 8 4 4 6 6 7 4 6 6 3 6 7 6 7 6 5 6 6 7 8 8 9 9 9 10 10 10 10 7 5 6 9 10 10 10 10 9 11 12 10 10 15 18 15 14 17 13 7 7 7 9 11 7 2 6 9 4 5 7 7 5 3 5 4 4 8 11 7 1 8 22
6 5 5 4 4 6 7 7 9 8 7 6 2 4 6 4 6 7 2 3 6 5 6 4 6 8 7 7 6 5 6 6 6 7 8 7 8 7 9 10 10 10 10 10 8 6 5 7 11 14 15 16 18 19 18 16 14 15 17 19 17 15 17 15 9 10 11 8 10 9 3 6 8 4 6 3 6 8 6 8 7 5 10 12 4 7 6 11
6 5 6 5 4 5 6 7 9 7 8 8 5 4 6 6 8 6 2 3 5 4 5 4 4 5 6 7 6 5 6 7 6 6 7 7 7 8 9 10 11 9 8 10 10 8 6 8 12 15 17 18 20 21 19 16 15 17 18 19 19 17 17 15 14 17 14 8 11 12 6 9 8 7 13 11 5 5 2 5 5 1 7 4 1 5 6 5
10 6 7 8 4 3 5 4 7 7 8 5 5 7 8 7 7 6 2 2 5 4 4 6 5 5 6 6 6 6 6 6 5 5 5 7 8 8 7 9 10 10 7 8 10 9 7 8 12 14 16 18 19 19 19 17 16 17 19 20 19 18 18 17 17 19 18 15 18 17 10 10 7 6 10 12 13 12 12 14 16 15 13 12 9 9 12 11
11 7 9 13 8 7 7 6 6 4 4 3 3 5 6 6 6 7 4 4 7 5 4 6 7 7 7 6 7 8 6 6 7 5 5 7 8 6 5 5 7 9 8 6 6 7 6 7 11 12 12 15 17 18 18 17 16 17 19 20 20 19 18 18 17 17 17 16 17 16 13 10 4 5 6 9 13 14 14 16 20 21 19 17 13 11 16 16
10 7 9 13 7 6 6 5 4 3 2 5 5 4 4 4 6 7 7 6 8 6 5 8 7 6 8 8 8 8 7 7 8 9 9 10 10 7 4 5 7 7 7 6 5 6 6 6 9 9 9 11 14 17 18 17 17 18 19 20 20 19 16 15 15 15 14 15 15 15 14 9 4 2 1 3 9 11 14 17 17 17 17 16 15 12 10 10
10 8 10 10 3 2 4 3 3 3 2 5 5 4 4 4 6 6 5 3 5 4 5 9 8 4 6 8 8 8 9 10 11 13 14 14 16 15 12 13 14 11 9 8 7 6 6 7 7 7 8 10 12 16 16 15 15 14 14 16 19 19 17 17 17 16 17 16 13 12 10 7 6 5 3 5 7 10 13 13 12 14 16 15 16 14 11 10
Wind_Direction
359 356 354 351 349 346 345 344 344 344 343 343 342 342 341 340 341 340 340 339 339 339 339 342 342 341 347 354 345 328 310 291 272 252 244 221 210 225 229 224 225 215 209 191 167 182 189 193 202 204 207 213 226 234 241 233 226 227 221 211 230 278 283 46 280 256 232 234 207 157 150 172 150 147 139 131 136 139 146 144 139 139 138 139 138 143 148 148
358 356 353 350 348 345 343 341 342 342 341 341 341 341 339 338 338 338 339 338 338 338 338 339 338 338 343 351 351 342 319 296 271 263 262 239 231 238 234 227 221 208 203 183 173 190 192 194 198 201 206 213 224 223 238 230 215 228 243 222 197 254 286 133 274 287 259 199 211 183 166 194 168 159 148 136 147 148 145 143 143 138 131 134 140 145 149 151
358 356 354 350 348 346 343 341 339 339 339 339 339 340 338 336 335 335 337 336 336 336 337 337 334 333 334 337 341 344 336 301 282 275 266 258 250 244 232 226 220 206 201 184 181 198 197 198 196 200 208 218 227 218 231 220 204 223 233 245 197 189 150 185 252 280 279 241 188 203 191 234 201 167 150 144 154 152 144 144 148 142 135 140 145 147 150 154
357 356 353 350 348 347 345 341 338 337 337 337 338 337 336 335 332 333 334 333 333 333 336 334 330 330 328 323 321 338 339 299 283 236 237 275 277 250 231 223 220 210 202 183 187 208 206 207 200 204 213 225 232 224 232 216 204 218 226 264 135 145 140 193 235 256 268 263 195 182 149 258 221 132 118 146 153 141 134 140 146 144 143 146 148 151 154 156
357 355 352 350 348 347 345 342 339 337 337 336 336 335 334 332 331 331 330 330 329 329 333 329 329 327 326 324 316 333 336 306 107 173 265 292 289 258 234 223 218 211 199 181 194 217 213 215 206 208 220 234 236 227 229 221 228 241 247 264 141 149 167 179 205 226 234 238 209 178 170 211 167 109 115 314 175 127 121 142 150 146 148 150 150 155 156 158
356 354 350 349 346 346 345 343 341 338 338 337 335 334 332 330 329 328 326 327 325 325 329 325 328 326 325 321 317 328 305 313 75 251 285 303 290 271 240 229 214 203 192 185 207 223 214 216 212 211 219 235 244 239 231 221 231 253 259 258 146 154 197 170 195 227 211 202 220 186 182 197 158 138 147 153 139 129 123 141 151 148 150 154 153 156 159 161
355 354 349 347 344 344 343 342 341 339 338 337 337 335 332 330 326 325 323 323 324 323 323 322 327 326 319 313 317 313 257 269 2 292 296 302 287 273 246 231 208 193 186 192 216 223 212 213 213 214 219 230 242 247 248 234 231 240 257 266 117 165 227 179 198 234 185 173 197 179 168 187 147 145 160 150 133 142 149 144 151 152 152 155 155 159 162 163
353 352 348 345 343 343 342 340 340 339 339 338 337 335 332 330 325 324 321 321 324 320 321 323 326 323 312 312 316 289 250 242 9 327 315 308 295 277 258 226 197 186 184 195 216 219 212 213 214 216 221 231 238 242 249 249 240 236 253 261 203 193 208 187 201 242 197 171 180 157 126 242 163 151 158 145 123 144 159 148 151 154 155 158 160 163 164 164
350 350 347 345 344 343 341 339 338 338 339 337 335 334 332 330 325 323 320 321 321 318 324 323 324 318 303 315 309 281 245 111 7 331 324 315 304 271 252 218 188 182 186 199 216 221 215 215 217 219 227 243 248 249 248 247 245 235 239 251 243 227 206 179 187 224 245 199 168 139 131 219 190 139 148 147 121 141 155 149 153 157 159 160 163 165 166 167
348 348 346 344 344 343 342 339 338 337 338 338 336 335 332 328 324 322 319 320 319 319 327 324 323 308 300 321 293 279 113 40 322 323 318 316 306 242 194 196 186 181 192 205 217 224 220 220 221 224 238 256 261 265 260 251 258 257 250 248 247 260 249 208 197 206 227 234 165 135 147 184 177 143 151 147 131 147 151 150 159 161 162 163 166 167 168 170
346 346 344 344 345 344 343 340 338 338 339 341 340 337 333 328 325 322 319 318 319 325 332 329 316 296 296 294 276 283 15 321 307 306 302 308 293 190 152 184 191 186 198 210 217 226 223 225 227 230 235 248 262 267 269 264 266 272 273 270 251 251 259 249 240 214 211 229 164 135 134 158 173 161 161 150 147 156 153 157 166 164 164 166 168 167 169 173
345 345 344 344 344 345 344 340 339 339 341 343 340 338 335 331 329 326 323 321 323 332 337 330 311 290 290 277 264 278 341 325 302 270 267 252 236 203 177 196 201 195 204 214 221 228 227 230 233 239 239 241 252 253 282 279 265 264 260 266 267 257 250 243 244 227 213 219 163 139 135 148 170 168 162 160 159 156 154 163 170 166 167 168 169 168 171 175
345 344 343 343 343 344 344 340 338 340 344 344 341 339 337 336 332 332 331 328 332 338 343 336 315 262 288 284 254 292 319 313 298 261 223 235 231 218 214 208 207 207 214 224 231 230 229 234 237 244 251 257 260 262 305 296 262 259 254 254 263 263 251 231 231 226 220 213 164 148 165 167 165 168 162 164 161 156 165 171 170 169 169 170 171 170 174 178
343 343 341 341 341 343 343 339 337 339 345 345 342 343 343 340 336 343 339 335 347 350 355 350 340 26 278 276 228 347 347 321 276 260 188 242 240 221 217 212 216 215 221 233 240 238 233 236 243 250 254 257 267 277 287 274 251 253 249 246 245 251 257 236 219 211 218 210 183 185 213 180 171 166 163 167 161 163 179 172 167 172 171 171 172 171 177 180
341 341 339 340 340 341 342 339 337 338 345 346 348 356 354 351 356 357 344 350 50 18 13 18 8 348 270 255 219 343 12 31 241 215 225 266 245 223 215 216 221 217 223 232 239 246 239 233 238 245 251 253 262 273 278 266 252 245 239 238 232 234 250 249 226 203 207 207 194 202 222 189 175 161 167 168 159 172 186 167 163 171 172 174 174 173 178 181
338 340 339 339 339 340 341 339 337 338 347 348 351 3 0 360 10 5 356 6 85 15 15 14 353 326 281 285 212 275 356 357 309 271 258 268 244 232 221 212 216 218 222 226 233 247 245 236 234 238 245 249 249 249 255 259 246 229 232 235 229 232 234 246 242 208 199 200 192 202 213 191 174 163 171 171 163 175 183 161 159 167 174 176 176 176 178 180
335 339 340 339 338 340 340 339 338 340 349 352 351 359 358 343 341 356 6 4 288 302 309 295 322 291 263 292 273 257 338 339 326 302 260 249 237 240 227 206 210 212 214 219 227 237 239 232 230 235 239 241 240 235 235 242 239 219 221 236 237 240 236 236 248 206 184 190 190 211 217 181 192 175 173 176 170 175 178 167 164 169 187 183 178 179 180 181
333 336 340 341 339 339 339 339 338 340 350 355 349 345 348 339 322 329 347 314 311 305 289 226 248 272 250 270 294 288 334 331 322 307 247 233 231 237 228 209 210 204 204 215 219 223 227 220 220 229 227 229 232 229 226 224 233 229 212 225 235 242 247 240 247 193 168 184 190 205 211 188 220 187 170 175 175 176 176 170 171 180 196 188 184 185 182 184
331 334 340 341 339 338 338 339 337 342 352 358 359 351 345 335 312 302 17 293 263 286 309 207 223 287 299 293 326 312 307 312 304 277 225 237 229 228 227 216 211 201 200 205 203 208 214 211 216 227 220 219 221 220 230 231 238 251 239 231 229 233 244 239 248 210 169 189 194 186 204 201 222 190 164 172 179 177 173 175 182 190 197 192 196 198 184 185
330 334 339 341 341 338 337 337 335 341 353 9 17 6 351 339 312 260 9 283 245 273 305 271 256 298 308 309 330 316 289 262 278 279 226 233 219 220 222 213 208 203 207 210 195 199 210 219 214 221 225 220 222 224 236 244 247 262 263 253 240 233 241 233 245 234 177 187 193 170 190 192 199 220 179 175 184 177 175 184 180 180 193 190 196 224 201 184
331 335 339 341 340 337 336 335 334 341 353 11 12 3 358 358 346 342 343 300 258 269 274 281 293 285 302 321 318 320 296 242 247 305 281 230 215 218 203 201 212 204 210 220 211 198 207 231 223 221 231 228 231 228 235 249 251 259 265 267 257 241 245 234 243 244 186 186 203 167 182 188 180 215 198 181 189 178 181 190 171 165 183 181 181 229 235 193
333 335 338 339 338 337 336 332 335 353 7 1 353 354 1 359 340 326 327 301 286 270 241 263 275 257 292 314 293 304 293 271 227 170 243 232 219 221 185 193 224 214 207 217 220 208 204 230 233 226 231 232 239 236 232 242 248 255 258 264 268 257 253 236 240 250 201 175 204 164 175 195 186 205 202 190 191 183 191 191 168 164 173 174 179 212 241 209
335 336 338 336 336 337 335 338 351 16 24 14 350 353 355 344 330 322 309 289 285 260 230 240 244 241 278 283 255 258 277 286 227 132 100 239 233 239 207 206 235 228 218 214 214 222 217 222 229 233 235 230 235 240 238 238 238 249 252 250 257 257 263 242 223 244 228 186 197 182 179 188 190 214 215 203 196 189 197 184 162 170 175 178 188 201 217 209
338 336 337 334 334 337 337 351 15 0 3 1 350 2 351 337 332 326 305 282 276 247 221 226 230 240 286 288 264 262 278 290 281 94 82 256 257 267 245 234 242 236 228 225 223 231 238 226 218 226 235 235 233 234 237 240 233 233 241 246 250 248 260 274 249 243 239 209 195 196 201 179 176 201 210 208 204 197 200 181 161 170 177 183 194 201 205 204
339 335 336 333 333 338 338 348 7 345 326 314 330 358 348 340 333 328 309 274 258 214 186 192 213 223 263 268 235 258 283 264 256 313 30 271 286 298 274 250 246 250 239 232 231 235 243 238 222 218 224 232 237 234 229 235 243 234 230 236 250 256 257 271 276 264 250 223 193 193 222 200 171 188 202 201 201 204 203 189 170 163 171 186 192 194 200 201
337 333 333 334 334 338 340 328 321 322 318 310 339 339 339 341 322 317 313 269 230 163 163 181 195 194 229 229 215 263 281 218 197 289 262 259 281 289 287 260 233 250 256 247 241 240 243 240 235 228 223 224 231 237 231 229 240 244 231 223 236 255 262 266 273 272 264 248 211 196 213 230 185 187 191 184 194 205 196 188 179 163 166 185 189 187 198 200
336 332 332 335 337 339 344 328 289 306 329 344 347 333 334 334 319 309 281 254 204 154 157 159 154 131 139 192 251 268 299 72 203 236 220 250 280 263 266 260 242 247 257 259 250 239 234 236 238 235 230 227 226 230 229 229 236 242 247 235 223 234 248 256 266 271 273 279 256 210 201 222 224 203 185 173 186 202 192 185 183 171 167 180 188 190 197 198
337 332 331 335 339 341 345 337 295 303 335 347 338 330 333 329 322 295 261 266 145 153 147 127 121 266 238 269 268 263 304 317 246 189 161 260 268 240 246 258 267 266 259 254 252 247 233 227 232 235 234 232 231 230 224 227 238 239 247 255 242 233 240 244 252 262 267 276 269 231 214 216 227 224 193 174 178 190 194 193 186 178 170 178 189 193 193 193
337 331 330 333 336 346 346 339 329 308 324 333 325 324 329 320 307 257 258 279 143 156 128 127 159 193 233 251 235 242 283 266 241 96 205 247 234 233 261 273 282 284 275 269 266 263 254 233 226 232 238 235 233 239 229 225 236 237 244 260 267 258 251 245 243 251 260 261 259 248 238 235 230 221 202 185 184 186 193 195 185 177 173 180 190 193 192 191
336 330 329 330 333 342 317 316 332 322 315 319 320 323 316 300 280 244 240 233 139 137 124 140 141 148 236 252 203 189 273 255 274 309 262 249 219 217 258 270 274 284 277 272 269 270 276 273 251 229 237 243 234 236 236 229 232 233 235 250 257 245 243 259 249 242 250 247 247 253 250 249 250 225 203 202 200 189 185 187 182 174 172 180 189 192 192 190
335 330 328 326 327 317 270 285 329 322 304 310 320 317 299 271 248 258 243 140 121 135 165 131 47 192 254 280 226 152 261 231 278 285 254 243 213 208 239 240 231 253 257 256 255 257 269 277 272 233 231 244 239 232 239 233 229 235 229 233 244 234 221 249 251 237 242 241 236 245 252 252 251 242 229 219 201 190 183 177 180 179 175 180 186 187 188 188
334 329 327 324 321 299 262 282 310 304 299 310 316 304 287 248 227 251 222 163 183 115 116 84 53 5 329 290 252 67 316 231 148 294 283 274 244 224 238 232 240 268 255 247 243 242 246 254 259 245 226 234 239 225 231 231 218 227 232 227 230 225 210 219 227 226 234 242 235 235 243 246 248 255 260 253 211 189 200 185 179 182 176 178 183 183 184 188
336 332 332 333 334 345 324 306 302 306 310 307 298 283 272 260 239 251 3 73 62 43 29 52 37 357 335 286 257 63 310 281 32 326 326 304 280 263 207 31 1 303 281 302 292 255 230 225 237 249 233 221 231 226 218 220 210 213 222 220 221 222 217 215 218 228 236 237 230 230 236 241 244 243 249 261 251 206 215 199 187 186 174 171 179 183 185 189
338 337 344 1 4 5 358 333 309 312 310 292 281 267 253 261 278 325 49 61 52 33 54 35 327 294 259 271 29 39 283 300 43 320 311 274 263 255 130 53 21 324 295 306 303 282 266 234 212 224 228 211 219 230 232 228 215 211 217 221 223 224 229 228 217 220 233 237 223 220 226 232 236 225 229 251 254 233 226 202 190 186 168 166 176 182 185 187
339 345 353 356 352 353 353 331 303 297 290 276 270 263 257 275 1 25 36 40 25 3 25 345 284 273 239 208 100 46 320 6 85 298 284 260 262 293 71 58 34 1 331 310 313 310 289 277 219 212 234 224 211 217 236 246 232 202 205 222 225 222 231 248 251 248 245 242 225 215 220 228 237 238 225 233 240 242 246 222 192 169 156 162 172 180 186 188
338 343 324 312 323 331 325 293 279 272 267 270 267 264 278 22 20 25 13 353 3 2 335 296 257 257 228 176 159 127 112 276 287 311 282 257 257 356 68 59 25 13 4 337 319 327 298 286 321 330 284 246 215 203 214 239 247 201 200 218 226 230 235 242 256 270 268 253 235 220 221 218 223 237 226 221 228 229 236 245 222 173 160 165 172 179 185 188
349 354 307 285 316 325 300 261 254 241 251 265 276 282 305 31 19 16 6 342 353 346 306 291 276 296 289 219 142 110 116 252 290 330 276 236 224 349 67 83 50 30 10 349 317 324 328 301 306 316 303 277 243 214 202 220 240 243 214 204 212 231 240 249 254 257 257 255 244 234 232 218 206 217 218 216 222 219 215 235 237 191 165 166 170 175 181 185
16 7 310 289 338 329 294 228 222 227 244 260 273 284 302 27 26 16 5 347 335 310 297 307 27 344 304 302 28 56 24 306 44 2 290 244 82 12 28 58 42 35 10 351 324 315 330 305 295 298 293 300 279 237 208 212 228 247 255 227 214 224 223 229 244 243 245 250 246 242 242 232 213 203 203 209 216 213 207 218 228 197 159 160 165 171 178 181
1 324 284 23 347 335 213 198 226 242 251 270 292 296 4 49 40 16 2 357 335 306 306 332 9 5 280 312 358 13 323 314 3 334 310 340 34 47 44 6 348 9 7 353 324 312 319 297 292 294 291 312 310 257 223 208 216 238 257 255 249 251 234 221 224 235 247 250 250 246 241 242 238 213 198 203 211 210 204 209 214 202 173 158 161 170 179 181
325 288 54 31 341 56 74 272 253 258 253 268 331 30 52 56 52 27 10 1 331 319 341 347 347 338 330 341 355 343 305 313 343 312 311 335 310 91 56 29 359 351 355 341 308 294 292 279 282 286 292 308 305 265 233 217 208 216 236 251 250 249 259 251 228 219 231 248 253 250 241 234 238 238 216 197 198 200 205 215 206 198 194 174 166 172 181 187
304 278 51 30 279 229 311 281 255 261 251 248 342 43 37 22 27 31 27 358 332 4 358 322 319 329 330 331 351 7 345 321 326 310 282 293 287 62 30 27 17 353 349 324 302 315 299 280 282 281 286 284 269 270 267 267 279 256 230 236 241 233 240 255 239 217 218 235 245 261 263 239 223 239 219 183 186 191 199 220 220 202 202 191 179 180 184 188
290 302 23 14 218 287 305 289 259 320 23 29 39 51 29 347 353 7 24 349 333 38 345 309 322 332 331 350 357 357 345 312 307 306 292 304 30 59 34 24 15 348 342 312 306 7 358 299 284 278 274 280 285 293 298 301 306 294 270 251 245 233 224 229 239 229 217 220 230 251 265 255 307 293 205 176 183 190 189 203 216 213 211 205 194 190 189 184
334 31 42 28 309 303 298 292 78 42 35 28 45 48 19 357 6 5 19 3 341 28 326 324 29 18 359 40 10 338 331 324 306 304 310 309 39 59 33 20 18 338 327 322 320 7 357 277 268 279 275 284 288 288 290 288 288 291 295 286 263 256 251 237 237 249 235 220 217 227 248 251 341 347 281 153 169 189 181 190 208 213 215 217 213 206 197 183
341 10 54 24 311 295 300 348 35 62 65 40 59 82 64 39 13 356 12 5 357 0 331 331 31 25 356 338 345 332 320 322 297 290 312 308 344 23 8 8 16 343 334 13 2 357 342 271 272 277 265 270 265 262 270 270 271 284 287 275 267 281 278 249 231 262 261 239 226 218 227 235 287 357 1 50 211 202 170 180 206 211 209 210 215 225 215 184
314 293 86 27 350 359 21 23 5 13 61 53 29 30 116 97 52 25 358 351 6 352 333 340 344 335 337 315 307 310 314 325 317 296 318 325 321 344 346 348 357 330 322 4 353 331 302 287 296 276 254 250 236 236 270 279 293 302 300 302 291 288 288 265 240 265 265 256 256 239 220 231 238 208 157 236 247 229 145 179 206 208 213 207 202 221 226 194
305 324 34 15 37 47 51 47 15 16 41 44 10 10 9 108 89 63 359 353 36 348 319 347 324 309 19 353 313 311 319 321 312 292 300 309 301 318 330 323 317 300 298 328 333 311 286 279 279 273 269 271 273 295 313 313 315 302 303 310 296 294 319 318 279 262 265 265 260 245 217 259 254 212 182 216 228 236 312 308 250 203 221 223 192 239 238 190
312 8 17 6 17 31 49 42 11 19 28 356 1 29 343 335 63 75 71 11 24 346 324 7 349 331 3 2 321 313 317 299 285 286 284 286 290 295 294 284 279 279 286 298 294 282 279 268 263 264 266 270 277 287 294 297 297 290 293 297 288 297 323 322 302 297 305 302 264 240 211 263 274 33 39 289 203 186 226 257 259 221 201 220 243 27 34 160
353 20 34 19 346 1 32 17 357 32 50 6 2 18 336 353 29 40 87 8 347 0 4 2 358 336 340 345 325 308 306 291 288 310 309 307 311 307 297 290 286 279 271 271 265 255 259 262 260 262 262 264 270 277 282 283 284 283 284 285 286 295 302 299 298 295 296 300 276 262 242 246 257 58 41 0 20 85 359 307 307 170 141 135 103 98 68 112
10 20 22 355 344 48 52 13 354 40 62 11 358 19 359 6 19 4 31 346 320 5 12 320 326 342 330 325 309 292 296 293 302 340 326 307 306 299 296 303 302 297 286 273 265 257 257 266 263 263 266 267 267 272 277 278 277 279 280 280 283 289 290 288 291 290 289 287 276 271 263 249 245 89 55 7 16 33 13 11 26 42 54 43 50 80 51 44
15 23 359 333 351 40 29 19 6 19 66 23 2 40 5 348 6 357 340 319 321 353 351 307 320 332 318 310 293 284 297 305 309 316 287 279 288 287 289 301 300 298 295 285 271 254 246 272 277 272 273 270 269 271 273 274 275 274 275 278 279 279 278 278 280 280 283 282 275 274 268 249 228 85 57 7 8 14 12 25 37 37 30 19 18 31 31 38
22 31 359 332 353 25 352 16 18 319 53 38 11 30 8 348 15 353 314 316 336 344 325 314 327 329 311 301 286 286 303 305 296 292 285 284 287 284 269 253 257 274 276 265 259 242 229 258 275 274 273 271 268 268 266 268 272 268 265 268 270 271 270 270 273 273 273 272 268 264 258 248 260 295 248 336 352 8 21 30 30 22 13 2 354 359 14 32
22 27 6 337 347 45 336 2 29 341 50 64 36 15 352 348 3 341 311 322 330 308 301 314 324 324 302 298 299 306 313 307 298 295 293 288 285 280 270 262 262 266 267 261 259 250 242 254 260 258 266 271 270 270 270 265 260 257 256 256 258 263 264 263 265 269 270 271 266 257 248 250 286 317 19 3 354 21 31 23 5 353 351 346 343 354 12 19
Height
1523 1521 1519 1517 1516 1514 1512 1510 1509 1508 1506 1505 1504 1503 1502 1500 1499 1498 1497 1496 1495 1493 1492 1491 1489 1488 1486 1485 1483 1482 1481 1480 1479 1478 1478 1477 1478 1478 1479 1479 1480 1482 1484 1485 1486 1489 1490 1491 1492 1493 1493 1494 1493 1492 1491 1490 1490 1491 1496 1507 1512 1508 1501 1495 1492 1490 1489 1487 1484 1485 1486 1486 1486 1487 1485 1484 1487 1487 1488 1489 1491 1492 1494 1497 1501 1505 1509 1512
1523 1521 1519 1517 1516 1514 1512 1510 1509 1507 1506 1505 1503 1502 1501 1500 1499 1497 1496 1495 1494 1493 1491 1490 1489 1487 1486 1485 1483 1482 1480 1479 1478 1477 1476 1476 1477 1477 1478 1479 1480 1481 1482 1484 1485 1487 1489 1489 1490 1492 1492 1491 1490 1489 1489 1487 1487 1489 1491 1500 1504 1499 1493 1490 1489 1487 1485 1486 1485 1484 1484 1486 1486 1485 1485 1486 1487 1488 1488 1490 1491 1492 1494 1499 1503 1507 1510 1513
1523 1521 1519 1517 1515 1513 1512 1510 1508 1507 1505 1504 1503 1501 1500 1499 1498 1497 1496 1495 1493 1492 1491 1490 1488 1487 1486 1484 1483 1482 1480 1479 1478 1476 1474 1475 1476 1476 1477 1478 1479 1480 1481 1483 1485 1487 1488 1489 1490 1491 1490 1489 1487 1487 1486 1483 1484 1485 1487 1494 1493 1487 1487 1488 1487 1486 1485 1485 1485 1484 1483 1485 1485 1481 1482 1486 1486 1488 1489 1489 1491 1492 1495 1500 1503 1507 1510 1513
1523 1521 1519 1517 1515 1513 1511 1509 1508 1506 1505 1503 1502 1500 1499 1498 1497 1496 1495 1494 1493 1492 1491 1489 1488 1486 1485 1484 1483 1481 1480 1478 1477 1475 1475 1475 1475 1475 1476 1477 1478 1479 1481 1483 1485 1488 1489 1489 1490 1490 1489 1488 1485 1484 1482 1480 1481 1480 1482 1486 1482 1480 1487 1488 1485 1485 1486 1486 1484 1485 1485 1485 1485 1481 1481 1482 1485 1490 1489 1489 1491 1492 1495 1499 1503 1506 1509 1512
1523 1521 1519 1517 1515 1513 1511 1509 1507 1505 1504 1503 1501 1500 1498 1497 1496 1495 1494 1493 1492 1491 1490 1489 1487 1486 1484 1483 1482 1481 1481 1479 1476 1475 1475 1475 1475 1475 1475 1476 1477 1479 1481 1483 1484 1487 1488 1488 1488 1488 1488 1486 1482 1481 1479 1477 1477 1477 1476 1474 1475 1478 1483 1485 1483 1483 1486 1488 1484 1484 1487 1486 1484 1483 1483 1484 1488 1490 1488 1490 1492 1493 1496 1498 1501 1506 1508 1512
1523 1520 1518 1516 1514 1512 1510 1508 1507 1505 1503 1502 1501 1499 1497 1496 1495 1494 1493 1492 1491 1490 1489 1488 1487 1485 1484 1483 1482 1481 1481 1479 1476 1475 1475 1475 1475 1475 1475 1476 1476 1478 1481 1482 1483 1485 1487 1486 1486 1486 1486 1484 1481 1479 1476 1474 1475 1478 1474 1467 1471 1476 1478 1480 1479 1479 1483 1488 1485 1483 1485 1484 1484 1485 1485 1486 1487 1487 1487 1490 1493 1494 1498 1499 1501 1505 1508 1511
1522 1520 1518 1516 1514 1512 1510 1508 1506 1504 1503 1501 1500 1498 1497 1495 1494 1493 1492 1491 1490 1489 1488 1487 1486 1485 1484 1483 1481 1481 1481 1478 1475 1474 1475 1475 1475 1475 1475 1475 1475 1477 1479 1481 1482 1484 1485 1485 1484 1483 1484 1484 1481 1477 1474 1471 1471 1476 1474 1467 1470 1475 1477 1477 1476 1476 1479 1484 1484 1482 1485 1484 1486 1489 1486 1485 1487 1488 1489 1491 1494 1496 1499 1502 1503 1505 1508 1510
1522 1520 1518 1516 1514 1512 1510 1507 1505 1504 1502 1501 1499 1497 1496 1494 1493 1491 1490 1490 1489 1488 1487 1486 1486 1485 1483 1482 1482 1481 1479 1478 1476 1474 1474 1474 1474 1474 1474 1474 1475 1476 1478 1480 1481 1483 1483 1483 1483 1482 1482 1481 1479 1475 1472 1471 1470 1471 1472 1466 1466 1471 1473 1474 1474 1475 1475 1480 1482 1480 1484 1486 1488 1489 1485 1485 1487 1489 1491 1492 1494 1497 1499 1502 1504 1506 1508 1511
1522 1520 1518 1516 1513 1511 1509 1507 1505 1503 1502 1500 1498 1497 1495 1493 1491 1490 1489 1488 1488 1487 1486 1486 1485 1484 1483 1482 1483 1481 1477 1476 1477 1475 1474 1473 1473 1473 1473 1473 1474 1475 1477 1480 1481 1482 1482 1481 1481 1481 1480 1478 1476 1473 1470 1473 1472 1466 1465 1463 1462 1463 1465 1468 1470 1472 1472 1475 1480 1484 1487 1487 1486 1487 1487 1486 1489 1491 1492 1493 1495 1497 1499 1502 1504 1506 1508 1510
1522 1519 1517 1515 1513 1511 1509 1507 1505 1503 1501 1499 1497 1496 1494 1492 1490 1489 1488 1487 1487 1486 1486 1486 1484 1484 1482 1482 1483 1480 1476 1476 1477 1476 1475 1474 1473 1473 1472 1473 1474 1475 1478 1480 1481 1481 1481 1481 1480 1480 1480 1476 1474 1472 1468 1471 1469 1461 1459 1460 1461 1461 1461 1463 1464 1467 1471 1471 1475 1483 1486 1485 1484 1488 1491 1488 1489 1492 1493 1495 1496 1497 1499 1502 1504 1506 1509 1510
1521 1519 1517 1515 1513 1511 1509 1506 1504 1502 1500 1498 1497 1495 1493 1491 1490 1488 1487 1486 1486 1486 1486 1485 1484 1483 1482 1482 1483 1479 1476 1477 1477 1476 1476 1474 1474 1473 1473 1475 1475 1476 1479 1480 1481 1481 1480 1480 1480 1480 1479 1476 1475 1473 1469 1467 1466 1461 1460 1461 1460 1460 1460 1460 1459 1462 1467 1469 1472 1474 1479 1483 1483 1487 1489 1487 1489 1491 1492 1494 1496 1497 1499 1501 1504 1506 1509 1511
1521 1519 1516 1514 1512 1510 1508 1506 1504 1502 1500 1498 1496 1494 1492 1490 1489 1487 1486 1486 1485 1485 1485 1484 1483 1482 1482 1482 1481 1478 1477 1477 1476 1476 1475 1475 1475 1475 1475 1476 1476 1477 1479 1479 1480 1480 1480 1480 1480 1479 1476 1475 1474 1473 1470 1467 1465 1463 1463 1466 1463 1460 1461 1459 1457 1458 1461 1467 1468 1467 1479 1488 1485 1484 1485 1485 1488 1489 1491 1493 1494 1497 1499 1501 1504 1506 1509 1510
1521 1518 1516 1514 1512 1510 1508 1506 1504 1502 1500 1498 1495 1493 1491 1490 1488 1487 1486 1486 1485 1485 1484 1484 1483 1482 1482 1481 1479 1478 1477 1477 1475 1474 1475 1475 1475 1475 1476 1477 1477 1477 1479 1479 1479 1479 1480 1480 1479 1478 1476 1474 1471 1470 1469 1464 1465 1465 1463 1467 1469 1468 1465 1456 1453 1456 1456 1461 1461 1467 1488 1494 1484 1480 1481 1483 1486 1488 1490 1492 1494 1496 1498 1501 1503 1506 1508 1510
1520 1518 1516 1514 1511 1509 1507 1505 1503 1501 1499 1497 1495 1493 1491 1489 1488 1487 1486 1485 1485 1485 1484 1483 1483 1483 1483 1480 1478 1478 1476 1476 1475 1474 1475 1476 1475 1475 1476 1476 1477 1477 1478 1478 1478 1479 1479 1479 1479 1478 1476 1474 1471 1469 1467 1464 1466 1467 1466 1467 1470 1476 1469 1450 1446 1452 1456 1457 1455 1466 1488 1490 1480 1477 1478 1481 1483 1486 1488 1489 1492 1496 1497 1500 1502 1505 1508 1509
1520 1518 1515 1513 1511 1509 1507 1505 1503 1501 1499 1496 1494 1492 1490 1489 1488 1487 1486 1485 1485 1484 1484 1483 1483 1483 1482 1478 1477 1477 1475 1475 1475 1475 1475 1475 1475 1475 1475 1476 1476 1477 1478 1478 1478 1478 1478 1478 1479 1477 1475 1474 1473 1473 1473 1470 1467 1466 1473 1475 1470 1472 1468 1450 1441 1445 1453 1453 1449 1463 1483 1482 1475 1475 1476 1479 1482 1484 1486 1486 1490 1494 1497 1499 1501 1504 1507 1508
1519 1517 1515 1513 1511 1508 1506 1504 1502 1500 1498 1496 1494 1492 1490 1489 1488 1487 1486 1485 1485 1484 1484 1483 1483 1484 1482 1477 1475 1476 1475 1475 1475 1475 1475 1474 1475 1474 1474 1475 1476 1476 1477 1477 1478 1478 1478 1477 1476 1476 1475 1474 1474 1476 1477 1478 1473 1466 1472 1475 1468 1466 1466 1456 1442 1435 1443 1450 1450 1461 1479 1481 1473 1472 1474 1476 1480 1483 1485 1486 1488 1492 1496 1498 1501 1503 1506 1508
1518 1516 1514 1512 1510 1508 1506 1503 1501 1499 1497 1495 1493 1492 1490 1489 1488 1487 1486 1485 1485 1484 1484 1483 1483 1484 1480 1476 1475 1475 1475 1475 1475 1475 1474 1474 1474 1474 1474 1475 1475 1476 1476 1477 1478 1477 1477 1476 1476 1475 1473 1473 1471 1474 1482 1486 1479 1468 1466 1469 1464 1460 1460 1459 1447 1433 1435 1449 1458 1462 1471 1477 1470 1466 1471 1475 1478 1481 1484 1487 1489 1492 1495 1497 1499 1502 1504 1507
1517 1515 1513 1511 1509 1507 1505 1503 1501 1499 1497 1495 1493 1491 1490 1489 1487 1487 1486 1485 1484 1484 1483 1482 1483 1484 1480 1475 1475 1475 1475 1476 1475 1474 1474 1473 1473 1474 1474 1474 1474 1475 1475 1476 1476 1476 1476 1473 1473 1474 1473 1474 1472 1473 1482 1482 1473 1466 1464 1466 1464 1458 1456 1456 1448 1434 1435 1449 1461 1467 1472 1474 1468 1464 1468 1473 1477 1480 1482 1487 1489 1491 1494 1496 1498 1500 1502 1504
1516 1514 1512 1510 1508 1506 1504 1502 1500 1499 1497 1494 1493 1491 1489 1488 1486 1486 1486 1485 1484 1483 1481 1481 1481 1481 1478 1475 1475 1476 1475 1475 1474 1473 1473 1473 1473 1473 1473 1473 1474 1474 1474 1475 1474 1473 1473 1472 1474 1476 1475 1474 1471 1469 1471 1467 1463 1460 1456 1457 1459 1459 1454 1449 1442 1430 1433 1450 1459 1466 1472 1472 1471 1467 1467 1472 1475 1479 1482 1485 1489 1491 1492 1494 1496 1499 1500 1503
1515 1513 1512 1510 1507 1505 1503 1502 1500 1498 1497 1494 1492 1489 1488 1487 1485 1484 1485 1485 1483 1481 1479 1479 1479 1477 1475 1475 1476 1475 1474 1474 1473 1473 1473 1473 1473 1473 1472 1473 1472 1472 1472 1472 1472 1470 1471 1474 1475 1474 1471 1467 1465 1463 1462 1458 1458 1457 1453 1451 1450 1453 1451 1443 1437 1426 1426 1447 1456 1460 1468 1472 1475 1473 1467 1471 1474 1477 1481 1484 1487 1489 1490 1492 1496 1500 1500 1501
1514 1513 1511 1509 1507 1505 1503 1501 1499 1498 1497 1495 1493 1491 1490 1490 1488 1486 1486 1484 1481 1480 1479 1479 1479 1477 1475 1476 1476 1475 1473 1472 1472 1472 1472 1472 1472 1472 1471 1471 1471 1472 1470 1468 1468 1467 1470 1474 1471 1467 1464 1461 1459 1458 1459 1459 1458 1458 1457 1455 1449 1448 1446 1438 1434 1426 1422 1442 1452 1453 1466 1473 1476 1476 1469 1469 1473 1474 1478 1482 1485 1487 1489 1491 1495 1501 1502 1501
1514 1512 1510 1508 1506 1504 1502 1500 1499 1498 1497 1495 1494 1493 1493 1494 1492 1492 1490 1485 1480 1479 1479 1479 1478 1477 1476 1476 1476 1475 1474 1471 1470 1471 1472 1471 1472 1470 1469 1469 1470 1469 1467 1466 1467 1468 1471 1472 1466 1460 1458 1457 1457 1455 1457 1459 1460 1460 1458 1458 1455 1447 1442 1437 1432 1424 1421 1438 1450 1452 1465 1470 1468 1470 1469 1468 1471 1472 1476 1479 1482 1483 1486 1490 1493 1499 1502 1501
1513 1511 1509 1507 1505 1504 1502 1500 1499 1497 1497 1495 1494 1495 1495 1494 1493 1493 1492 1487 1480 1477 1477 1477 1477 1476 1475 1476 1475 1475 1473 1469 1468 1469 1471 1472 1470 1469 1468 1468 1468 1466 1465 1465 1467 1469 1470 1467 1460 1456 1455 1456 1458 1456 1456 1458 1459 1461 1459 1460 1459 1449 1446 1444 1436 1427 1422 1430 1443 1449 1460 1466 1465 1467 1467 1466 1467 1469 1473 1476 1478 1481 1484 1488 1491 1495 1499 1499
1513 1511 1509 1506 1504 1503 1501 1499 1498 1496 1496 1495 1495 1496 1495 1494 1494 1492 1491 1487 1479 1475 1475 1475 1475 1475 1475 1475 1475 1474 1473 1470 1468 1469 1471 1472 1469 1468 1467 1465 1465 1466 1463 1462 1463 1464 1462 1456 1452 1453 1454 1455 1458 1457 1456 1459 1459 1458 1457 1458 1457 1449 1446 1443 1434 1429 1425 1426 1433 1443 1458 1466 1469 1473 1469 1464 1465 1466 1469 1472 1476 1480 1483 1487 1489 1492 1497 1499
1512 1510 1508 1506 1504 1502 1500 1499 1497 1497 1497 1496 1496 1496 1495 1495 1493 1492 1491 1486 1478 1473 1473 1475 1474 1475 1475 1474 1475 1473 1472 1470 1469 1470 1471 1471 1470 1468 1466 1464 1465 1465 1462 1459 1460 1461 1457 1449 1447 1452 1454 1454 1457 1457 1455 1458 1460 1457 1453 1452 1452 1448 1445 1442 1436 1435 1440 1441 1432 1440 1466 1471 1464 1471 1471 1464 1465 1468 1468 1469 1473 1478 1480 1484 1486 1489 1493 1497
1512 1510 1508 1506 1503 1500 1500 1498 1497 1498 1497 1496 1496 1495 1495 1495 1493 1493 1492 1486 1477 1470 1472 1475 1473 1474 1474 1473 1474 1473 1471 1470 1469 1471 1471 1471 1471 1470 1468 1464 1463 1464 1460 1456 1456 1455 1451 1446 1445 1449 1452 1454 1456 1456 1451 1452 1460 1460 1449 1443 1448 1448 1447 1446 1441 1442 1451 1448 1429 1430 1459 1468 1457 1460 1462 1460 1465 1468 1468 1469 1471 1475 1478 1481 1484 1487 1490 1493
1511 1509 1507 1505 1503 1500 1499 1498 1498 1497 1496 1496 1496 1495 1496 1494 1492 1493 1492 1489 1479 1468 1470 1473 1472 1473 1473 1473 1473 1473 1473 1471 1469 1470 1470 1471 1471 1470 1471 1466 1462 1462 1456 1457 1461 1454 1447 1448 1448 1447 1450 1452 1455 1455 1450 1448 1458 1458 1444 1439 1445 1448 1450 1450 1447 1449 1447 1442 1432 1427 1442 1459 1459 1452 1447 1452 1464 1467 1468 1470 1470 1472 1476 1479 1482 1484 1488 1490
1509 1507 1505 1504 1503 1501 1499 1498 1497 1496 1497 1497 1495 1496 1495 1493 1494 1493 1494 1493 1479 1466 1468 1471 1472 1473 1473 1473 1473 1471 1471 1470 1469 1469 1469 1471 1471 1469 1470 1466 1463 1461 1454 1459 1465 1453 1443 1448 1450 1449 1451 1451 1450 1449 1445 1446 1453 1451 1441 1438 1439 1442 1447 1447 1449 1452 1446 1447 1450 1437 1434 1454 1461 1446 1437 1445 1459 1467 1467 1467 1468 1469 1472 1475 1477 1479 1483 1487
1508 1506 1504 1503 1502 1501 1500 1498 1497 1497 1498 1497 1496 1496 1494 1495 1495 1491 1494 1493 1473 1464 1469 1470 1471 1474 1472 1472 1471 1470 1469 1467 1467 1468 1468 1469 1469 1468 1468 1464 1462 1461 1455 1456 1460 1452 1442 1443 1444 1447 1450 1449 1446 1443 1440 1445 1449 1444 1440 1440 1439 1441 1444 1447 1451 1453 1452 1458 1462 1446 1435 1451 1459 1444 1436 1442 1451 1459 1460 1457 1459 1462 1466 1469 1471 1474 1478 1482
1507 1505 1503 1502 1501 1501 1500 1498 1498 1498 1498 1497 1496 1495 1494 1496 1494 1493 1499 1488 1466 1465 1470 1468 1470 1472 1471 1469 1467 1468 1468 1467 1466 1467 1467 1466 1466 1467 1466 1464 1463 1463 1460 1456 1457 1453 1444 1440 1440 1442 1445 1442 1441 1441 1439 1440 1442 1440 1443 1447 1446 1445 1446 1450 1451 1452 1463 1468 1461 1449 1437 1446 1458 1444 1432 1435 1436 1440 1447 1451 1452 1455 1460 1465 1467 1471 1474 1477
1505 1504 1502 1501 1500 1500 1499 1498 1498 1498 1497 1497 1495 1495 1495 1494 1492 1495 1493 1474 1464 1469 1469 1468 1471 1469 1470 1468 1467 1468 1467 1466 1467 1467 1467 1464 1463 1465 1464 1464 1464 1464 1464 1461 1458 1454 1448 1446 1442 1438 1440 1439 1439 1442 1439 1436 1438 1443 1447 1452 1456 1455 1455 1462 1461 1460 1474 1474 1458 1448 1441 1447 1460 1445 1426 1423 1420 1422 1434 1443 1447 1450 1454 1459 1463 1467 1470 1474
1504 1503 1501 1500 1500 1499 1498 1497 1497 1497 1496 1496 1496 1496 1495 1493 1493 1490 1476 1463 1470 1474 1467 1470 1473 1469 1470 1469 1467 1469 1469 1468 1468 1468 1466 1463 1463 1462 1462 1464 1465 1471 1472 1463 1458 1456 1452 1449 1443 1438 1437 1437 1441 1447 1446 1441 1443 1449 1451 1454 1465 1469 1471 1480 1478 1472 1475 1469 1453 1448 1448 1451 1453 1439 1424 1418 1413 1413 1420 1428 1436 1442 1447 1453 1458 1462 1466 1470
1503 1501 1500 1499 1499 1498 1498 1496 1497 1497 1497 1497 1498 1495 1493 1496 1491 1475 1463 1465 1474 1474 1468 1472 1473 1471 1473 1471 1469 1471 1471 1470 1469 1469 1468 1466 1465 1461 1461 1463 1465 1473 1474 1465 1460 1458 1453 1448 1443 1443 1439 1435 1441 1449 1454 1450 1447 1451 1452 1456 1467 1474 1482 1490 1484 1477 1473 1462 1449 1444 1449 1453 1449 1436 1424 1417 1412 1410 1410 1415 1424 1430 1438 1447 1453 1457 1462 1465
1501 1500 1499 1499 1498 1497 1496 1496 1497 1497 1497 1498 1497 1493 1493 1495 1482 1466 1464 1471 1474 1472 1472 1474 1474 1473 1473 1472 1473 1474 1474 1472 1471 1473 1472 1469 1469 1464 1463 1468 1469 1471 1470 1469 1466 1460 1461 1456 1444 1444 1441 1435 1439 1443 1446 1444 1442 1445 1443 1448 1458 1463 1473 1480 1473 1473 1471 1458 1448 1445 1448 1452 1447 1433 1419 1412 1409 1406 1407 1409 1414 1420 1429 1441 1449 1453 1457 1460
1501 1500 1499 1498 1497 1496 1495 1497 1497 1497 1499 1498 1495 1493 1492 1489 1477 1471 1475 1476 1474 1473 1473 1473 1475 1475 1472 1471 1474 1474 1477 1477 1473 1474 1474 1470 1469 1466 1468 1474 1475 1475 1475 1478 1473 1464 1465 1455 1436 1436 1437 1432 1437 1439 1438 1441 1443 1440 1437 1447 1454 1450 1454 1461 1456 1452 1452 1451 1448 1443 1442 1437 1430 1420 1410 1408 1408 1405 1407 1406 1408 1415 1422 1432 1442 1448 1453 1457
1500 1499 1500 1498 1498 1497 1497 1498 1498 1498 1499 1496 1495 1494 1488 1482 1479 1480 1481 1479 1478 1479 1478 1476 1474 1474 1471 1470 1473 1475 1478 1479 1474 1475 1474 1469 1467 1467 1474 1480 1480 1480 1482 1486 1482 1474 1473 1459 1439 1439 1438 1429 1432 1435 1436 1443 1444 1438 1441 1449 1446 1438 1443 1455 1456 1444 1442 1453 1447 1435 1435 1430 1426 1422 1411 1409 1411 1408 1408 1407 1406 1411 1417 1425 1434 1440 1447 1452
1499 1498 1499 1499 1499 1499 1497 1497 1497 1498 1498 1495 1496 1491 1480 1478 1482 1482 1482 1482 1481 1481 1481 1480 1477 1476 1473 1471 1472 1474 1478 1478 1476 1478 1475 1469 1470 1471 1474 1481 1483 1484 1486 1488 1485 1479 1480 1471 1450 1446 1445 1432 1428 1431 1433 1437 1438 1439 1443 1442 1438 1438 1441 1449 1459 1457 1455 1462 1448 1432 1433 1432 1434 1434 1418 1411 1416 1412 1410 1409 1405 1406 1413 1421 1427 1434 1441 1446
1499 1498 1499 1499 1499 1498 1496 1497 1497 1498 1497 1494 1492 1487 1478 1480 1485 1485 1485 1484 1482 1482 1482 1481 1480 1480 1479 1475 1474 1476 1478 1479 1479 1481 1476 1470 1476 1479 1478 1481 1483 1485 1487 1490 1488 1481 1482 1482 1461 1448 1449 1439 1429 1433 1437 1435 1434 1436 1436 1431 1436 1450 1453 1451 1461 1466 1465 1466 1453 1437 1432 1427 1428 1428 1419 1416 1417 1413 1410 1409 1406 1405 1411 1420 1426 1432 1438 1442
1500 1499 1499 1499 1498 1497 1496 1497 1497 1497 1496 1492 1488 1485 1482 1484 1488 1489 1488 1487 1485 1485 1484 1483 1482 1482 1481 1478 1479 1480 1481 1482 1483 1485 1481 1476 1480 1485 1485 1487 1486 1486 1488 1490 1491 1485 1484 1489 1476 1453 1447 1446 1439 1438 1441 1440 1437 1437 1436 1432 1435 1443 1447 1447 1451 1456 1461 1464 1457 1446 1438 1429 1418 1409 1409 1413 1411 1409 1409 1409 1408 1407 1411 1420 1426 1431 1436 1439
1501 1498 1497 1498 1498 1497 1496 1497 1497 1496 1495 1490 1485 1485 1485 1486 1490 1492 1492 1491 1489 1488 1488 1487 1485 1484 1484 1482 1482 1483 1482 1483 1486 1488 1486 1482 1483 1487 1489 1492 1491 1490 1492 1491 1492 1489 1485 1490 1486 1464 1451 1454 1453 1443 1439 1439 1440 1442 1444 1443 1442 1440 1439 1441 1440 1440 1449 1458 1457 1452 1446 1430 1410 1396 1397 1402 1403 1404 1406 1407 1407 1407 1409 1417 1423 1428 1432 1436
1500 1497 1496 1498 1498 1497 1497 1496 1494 1491 1489 1488 1486 1487 1490 1491 1492 1493 1494 1494 1492 1491 1492 1491 1489 1489 1489 1487 1486 1487 1488 1488 1488 1490 1489 1483 1483 1489 1493 1496 1496 1495 1496 1494 1491 1491 1489 1490 1489 1477 1465 1462 1455 1442 1436 1437 1439 1441 1442 1442 1442 1441 1442 1452 1452 1437 1436 1447 1449 1450 1448 1426 1400 1389 1390 1394 1398 1401 1403 1406 1406 1405 1408 1413 1418 1424 1428 1431
1498 1496 1497 1498 1498 1497 1496 1493 1488 1486 1488 1490 1491 1493 1496 1496 1495 1494 1495 1496 1494 1493 1493 1491 1490 1491 1492 1492 1492 1493 1495 1495 1493 1492 1490 1485 1485 1493 1497 1499 1500 1499 1498 1496 1492 1493 1496 1495 1492 1485 1474 1465 1456 1445 1441 1442 1442 1441 1439 1437 1437 1436 1436 1450 1457 1442 1434 1440 1438 1441 1447 1425 1395 1385 1386 1388 1393 1395 1399 1405 1406 1406 1409 1410 1413 1420 1423 1426
1498 1497 1498 1499 1498 1497 1495 1491 1487 1487 1492 1494 1495 1497 1498 1498 1498 1497 1497 1497 1495 1495 1495 1493 1493 1494 1494 1495 1497 1498 1498 1499 1498 1495 1494 1491 1491 1496 1500 1500 1502 1500 1499 1498 1495 1497 1499 1497 1496 1491 1478 1467 1459 1452 1445 1443 1445 1446 1443 1438 1437 1436 1433 1436 1441 1437 1435 1437 1436 1445 1453 1431 1400 1389 1386 1386 1389 1392 1396 1402 1406 1408 1409 1411 1412 1415 1418 1421
1501 1499 1499 1499 1497 1495 1494 1493 1491 1490 1494 1495 1495 1498 1500 1500 1501 1500 1501 1501 1499 1498 1497 1495 1496 1498 1499 1497 1498 1500 1501 1502 1500 1497 1497 1497 1495 1498 1500 1502 1504 1502 1502 1503 1502 1504 1504 1499 1499 1499 1492 1483 1474 1465 1457 1450 1449 1451 1447 1440 1436 1437 1437 1432 1432 1437 1440 1434 1432 1444 1452 1432 1407 1396 1393 1392 1394 1393 1394 1400 1405 1407 1407 1410 1413 1413 1414 1417
1504 1500 1498 1498 1496 1494 1494 1495 1493 1490 1494 1497 1497 1497 1498 1501 1504 1504 1504 1504 1503 1503 1501 1499 1499 1500 1501 1501 1499 1499 1501 1504 1504 1500 1500 1503 1501 1501 1502 1504 1506 1505 1504 1507 1507 1507 1508 1505 1504 1505 1503 1496 1484 1477 1472 1465 1460 1457 1450 1445 1443 1442 1441 1436 1436 1446 1451 1440 1430 1436 1441 1427 1410 1404 1403 1402 1400 1397 1397 1400 1403 1404 1405 1407 1411 1413 1413 1413
1502 1499 1498 1497 1496 1495 1496 1498 1496 1494 1496 1500 1500 1499 1499 1500 1503 1506 1506 1505 1505 1506 1503 1501 1502 1500 1501 1504 1504 1503 1505 1507 1509 1507 1506 1509 1507 1505 1506 1507 1508 1508 1506 1508 1508 1508 1508 1507 1506 1506 1503 1495 1484 1479 1478 1475 1473 1469 1460 1454 1451 1447 1446 1447 1448 1451 1448 1443 1436 1431 1432 1431 1421 1414 1412 1409 1406 1406 1406 1405 1404 1405 1407 1407 1408 1411 1410 1410
1503 1502 1503 1502 1500 1499 1498 1499 1500 1499 1501 1502 1503 1505 1504 1500 1501 1505 1507 1507 1507 1507 1505 1503 1505 1505 1507 1509 1510 1511 1510 1509 1511 1511 1510 1511 1509 1507 1508 1508 1508 1508 1508 1508 1509 1509 1511 1509 1504 1501 1499 1493 1486 1481 1479 1477 1477 1474 1467 1462 1455 1450 1454 1459 1461 1455 1450 1455 1449 1429 1425 1434 1431 1423 1423 1418 1411 1412 1413 1411 1409 1408 1409 1409 1409 1411 1411 1411
1507 1507 1507 1507 1507 1505 1504 1505 1504 1502 1505 1507 1506 1508 1507 1504 1505 1508 1509 1508 1507 1507 1508 1508 1508 1509 1511 1513 1514 1515 1515 1513 1513 1514 1513 1513 1511 1510 1509 1507 1506 1507 1508 1509 1508 1507 1509 1509 1501 1497 1494 1489 1483 1480 1478 1477 1476 1472 1468 1465 1459 1457 1459 1459 1459 1452 1450 1460 1456 1433 1426 1432 1429 1427 1431 1425 1417 1415 1415 1414 1411 1409 1410 1412 1412 1414 1415 1415
1511 1510 1509 1508 1508 1508 1508 1508 1506 1504 1508 1511 1511 1511 1511 1509 1510 1511 1510 1511 1509 1509 1512 1513 1511 1511 1512 1515 1517 1517 1518 1517 1515 1516 1516 1516 1515 1513 1511 1510 1508 1508 1508 1508 1506 1505 1507 1505 1498 1494 1493 1487 1482 1480 1477 1476 1476 1472 1469 1465 1461 1461 1461 1459 1456 1450 1448 1451 1444 1431 1428 1429 1425 1425 1428 1425 1421 1419 1419 1419 1416 1414 1415 1417 1417 1418 1421 1422
1517 1517 1516 1512 1508 1509 1509 1508 1508 1507 1509 1513 1514 1516 1516 1515 1515 1514 1512 1512 1512 1511 1514 1514 1513 1513 1513 1515 1517 1517 1516 1514 1514 1514 1515 1515 1514 1512 1512 1513 1512 1512 1511 1509 1507 1507 1508 1506 1499 1494 1494 1490 1484 1480 1478 1477 1476 1475 1471 1466 1463 1463 1461 1459 1455 1450 1449 1447 1438 1431 1433 1430 1423 1421 1423 1424 1424 1423 1424 1425 1424 1424 1424 1424 1424 1425 1428 1429
1522 1522 1521 1518 1514 1513 1513 1511 1510 1510 1511 1515 1516 1518 1519 1517 1518 1520 1517 1515 1515 1515 1516 1514 1513 1514 1515 1515 1516 1516 1513 1512 1512 1511 1511 1511 1510 1509 1511 1512 1513 1513 1512 1510 1509 1507 1507 1507 1502 1500 1502 1496 1485 1481 1478 1475 1475 1474 1471 1467 1464 1463 1461 1458 1453 1448 1447 1445 1439 1438 1437 1432 1425 1422 1423 1426 1428 1429 1431 1432 1432 1433 1432 1432 1432 1431 1433 1434
1524 1524 1523 1522 1518 1516 1515 1511 1510 1512 1516 1520 1522 1522 1522 1521 1520 1522 1521 1518 1517 1517 1517 1514 1513 1515 1517 1516 1516 1514 1513 1512 1512 1511 1510 1510 1508 1507 1508 1507 1507 1508 1507 1505 1505 1505 1505 1506 1503 1504 1506 1497 1486 1482 1477 1474 1478 1476 1468 1463 1461 1459 1458 1456 1451 1446 1443 1441 1440 1438 1433 1428 1427 1427 1430 1434 1435 1435 1437 1438 1439 1439 1438 1438 1437 1436 1437 1439